{"data":{"norad_id":64483,"intl_designator":"2025-133M","name":"STARLINK-34420","alt_names":[],"object_type":"PAYLOAD","status":"ACTIVE","operator":null,"country":"US","launch_date":"2025-06-23","launch_site_code":"AFETR","launch_vehicle":null,"mission":null,"orbit_class":"UNKNOWN","rcs_meters":null,"size_class":null,"mass_kg":null,"dimensions":null,"purposes":["comms"],"wikipedia_slug":null,"has_3d_model":false,"image_url":null,"decayed_at":null,"tle_current":{"epoch":"2026-09-20T18:54:14.727744Z","epoch_age_seconds":123595,"freshness":"FRESH","line1":"1 64483U 25133M   26263.78767046  .00004194  00000+0  13522-3 0  9996","line2":"2 64483  53.1609 288.1174 0000850  74.7219 285.3878 15.34394530 71090","mean_motion":15.3439453,"eccentricity":8.5e-5,"inclination_deg":53.1609,"raan_deg":288.1174,"arg_perigee_deg":74.7219,"mean_anomaly_deg":285.3878,"bstar":0.00013522,"rev_number":7109,"period_min":93.848092641467,"perigee_km":462.1380254458,"apogee_km":463.3009710505,"semimajor_km":6840.8564982482,"source":"CELESTRAK","updated_at":"2026-09-21T09:00:35.360288Z"}}}